CST,Max TemperatureF,Mean TemperatureF,Min TemperatureF,Max Dew PointF,MeanDew PointF,Min DewpointF,Max Humidity, Mean Humidity, Min Humidity, Max Sea Level PressureIn, Mean Sea Level PressureIn, Min Sea Level PressureIn, Max VisibilityMiles, Mean VisibilityMiles, Min VisibilityMiles, Max Wind SpeedMPH, Mean Wind SpeedMPH, Max Gust SpeedMPH,PrecipitationIn, CloudCover, Events, WindDirDegrees
2014-1-1,15,12,9,11,6,3,84,77,70,30.30,30.25,30.19,10,4,0,17,11,21,0.16,7,Fog-Snow,41
2014-1-2,14,3,-9,4,0,-13,87,76,64,30.50,30.37,30.22,10,10,7,14,7,18,T,5,Snow,325
2014-1-3,23,4,-15,13,0,-19,87,72,56,30.50,30.20,29.81,10,10,7,26,11,36,0.00,1,,177
2014-1-4,33,27,20,23,18,13,91,77,62,30.06,29.92,29.79,10,5,0,22,11,31,0.18,6,Fog-Snow,274
2014-1-5,20,5,-10,16,1,-20,91,72,53,30.32,30.15,30.04,10,5,1,33,17,45,0.13,7,Snow,346
2014-1-6,-6,-10,-15,-15,-20,-25,71,64,57,30.41,30.36,30.27,10,9,4,30,17,40,0.00,2,,283
2014-1-7,8,-1,-10,-2,-10,-17,82,72,62,30.37,30.32,30.23,10,10,10,15,5,17,0.00,3,,193
2014-1-8,15,4,-7,1,-5,-12,79,65,51,30.54,30.46,30.31,10,10,9,8,1,9,0.00,1,,314
2014-1-9,28,11,-6,26,11,-10,92,80,67,30.53,30.31,30.13,10,5,1,10,6,13,0.02,7,Snow,105
2014-1-10,40,34,28,38,32,26,100,93,85,30.10,29.77,29.49,10,4,1,18,9,24,0.31,8,Rain,168
2014-1-11,37,34,30,34,28,24,100,82,64,29.86,29.65,29.49,10,8,5,24,15,32,0.00,7,,280
2014-1-12,48,37,26,33,28,23,92,71,49,29.86,29.69,29.54,10,10,7,25,10,35,0.00,1,,187
2014-1-13,42,35,27,32,28,23,92,78,64,29.81,29.69,29.57,10,10,9,21,7,28,0.00,3,,264
2014-1-14,37,28,18,32,20,11,89,74,58,30.05,29.84,29.60,10,8,2,33,18,47,0.03,7,Rain-Snow,270
2014-1-15,25,18,10,16,8,3,76,66,56,30.19,30.05,29.78,10,10,2,21,12,29,T,3,Snow,261
2014-1-16,39,25,11,32,18,1,76,66,55,29.86,29.66,29.52,10,10,5,33,15,43,T,7,Snow,275
2014-1-17,17,12,7,6,4,-1,76,69,61,30.06,29.98,29.83,10,8,3,24,12,32,T,5,Snow,289
2014-1-18,24,16,7,19,13,4,91,82,73,29.99,29.78,29.60,10,5,0,22,8,28,0.15,7,Fog-Snow,108
2014-1-19,43,26,8,29,21,6,92,73,53,29.97,29.75,29.59,10,10,7,23,13,31,0.00,0,,248
2014-1-20,38,26,14,29,20,9,88,76,64,30.18,29.97,29.70,10,5,0,24,10,31,0.10,6,Fog-Snow,348
2014-1-21,14,7,0,9,-3,-10,80,68,55,30.45,30.30,30.16,10,8,1,21,7,31,T,4,Snow,343
2014-1-22,19,9,-1,10,2,-12,76,68,59,30.40,30.10,29.97,10,7,1,29,13,40,T,6,Snow,285
2014-1-23,3,-3,-9,-8,-12,-16,83,71,58,30.74,30.65,30.43,10,10,10,23,13,31,0.00,0,,287
2014-1-24,33,14,-5,28,10,-11,78,63,47,30.58,29.90,29.52,10,8,2,28,16,39,T,6,Snow,229
2014-1-25,35,23,11,32,7,-4,96,71,45,29.96,29.78,29.52,10,10,9,36,18,47,T,3,,292
2014-1-26,39,21,2,27,13,-8,81,68,54,30.08,29.65,29.40,10,6,1,39,19,53,0.06,7,Snow,292
2014-1-27,2,-2,-7,-6,-13,-15,71,60,49,30.55,30.36,30.09,10,9,2,32,16,40,0.00,3,Snow,299
2014-1-28,12,0,-13,-3,-10,-18,79,66,52,30.54,30.43,30.31,10,10,10,21,5,23,0.00,1,,263
2014-1-29,30,12,-6,10,2,-12,75,57,39,30.30,30.14,29.90,10,10,10,23,10,32,0.00,0,,212
2014-1-30,33,25,16,27,17,8,85,66,46,30.03,29.76,29.63,10,8,0,35,16,45,0.02,4,Fog-Snow,229
2014-1-31,16,12,8,8,4,0,73,66,59,30.25,30.15,30.06,10,9,2,15,6,18,0.01,5,Snow,340